{"data":{"norad_id":56047,"intl_designator":"2023-043B","name":"ONEWEB-0538","alt_names":[],"object_type":"PAYLOAD","status":"ACTIVE","operator":null,"country":"UK","launch_date":"2023-03-26","launch_site_code":"SRILR","launch_vehicle":null,"mission":null,"orbit_class":"UNKNOWN","rcs_meters":null,"size_class":null,"mass_kg":null,"dimensions":null,"purposes":["comms"],"wikipedia_slug":null,"has_3d_model":false,"image_url":null,"decayed_at":null,"tle_current":{"epoch":"2026-09-20T04:25:37.744032Z","epoch_age_seconds":45485,"freshness":"FRESH","line1":"1 56047U 23043B   26263.18446463 -.00000055  00000+0 -17718-3 0  9997","line2":"2 56047  87.9151 209.9144 0001732  73.2979 286.8342 13.16594253171476","mean_motion":13.16594253,"eccentricity":0.0001732,"inclination_deg":87.9151,"raan_deg":209.9144,"arg_perigee_deg":73.2979,"mean_anomaly_deg":286.8342,"bstar":-0.00017718,"rev_number":17147,"period_min":109.3731038791,"perigee_km":1196.4445376525,"apogee_km":1199.0688272241,"semimajor_km":7575.8936824383,"source":"CELESTRAK","updated_at":"2026-09-20T09:00:44.786385Z"}}}